TimeEST,TemperatureF,Dew PointF,Humidity,Sea Level PressureIn,VisibilityMPH,Wind Direction,Wind SpeedMPH,Gust SpeedMPH,PrecipitationIn,Events,Conditions,WindDirDegrees,DateUTC
12:51 AM,48.9,35.1,59,30.02,10.0,North,5.8,-,N/A,,Clear,360,2013-02-16 05:51:00
1:51 AM,46.9,35.1,63,30.01,10.0,North,4.6,-,N/A,,Clear,360,2013-02-16 06:51:00
2:51 AM,46.0,35.1,66,30.00,10.0,North,3.5,-,N/A,,Overcast,350,2013-02-16 07:51:00
3:51 AM,46.0,35.1,66,30.00,10.0,NNW,3.5,-,N/A,,Overcast,340,2013-02-16 08:51:00
4:51 AM,45.0,36.0,71,29.99,10.0,NW,4.6,-,N/A,,Overcast,320,2013-02-16 09:51:00
5:51 AM,46.0,36.0,68,30.00,10.0,NW,4.6,-,N/A,,Overcast,320,2013-02-16 10:51:00
6:51 AM,46.0,33.1,61,30.02,10.0,North,3.5,-,0.00,,Overcast,350,2013-02-16 11:51:00
7:51 AM,44.1,33.1,65,30.02,10.0,NNE,3.5,-,0.00,Rain,Light Rain,30,2013-02-16 12:51:00
8:51 AM,44.1,30.0,58,30.04,10.0,North,8.1,-,0.00,,Overcast,360,2013-02-16 13:51:00
9:51 AM,45.0,28.9,53,30.05,10.0,NNW,10.4,-,N/A,,Partly Cloudy,340,2013-02-16 14:51:00
10:51 AM,46.9,23.0,39,30.06,10.0,NNW,16.1,24.2,N/A,,Scattered Clouds,340,2013-02-16 15:51:00
11:51 AM,48.0,17.1,29,30.06,10.0,NNW,24.2,28.8,N/A,,Scattered Clouds,330,2013-02-16 16:51:00
12:51 PM,50.0,12.9,23,30.04,10.0,NW,23.0,33.4,N/A,,Scattered Clouds,310,2013-02-16 17:51:00
1:51 PM,50.0,12.0,22,30.02,10.0,NW,18.4,28.8,N/A,,Scattered Clouds,310,2013-02-16 18:51:00
2:51 PM,46.9,8.1,21,30.02,10.0,NNW,18.4,27.6,N/A,,Partly Cloudy,340,2013-02-16 19:51:00
3:51 PM,48.0,9.0,21,30.04,10.0,NNW,16.1,28.8,N/A,,Scattered Clouds,330,2013-02-16 20:51:00
4:51 PM,45.0,7.0,21,30.06,10.0,NNW,17.3,28.8,N/A,,Scattered Clouds,330,2013-02-16 21:51:00
5:51 PM,45.0,7.0,21,30.08,10.0,NNW,19.6,28.8,N/A,,Partly Cloudy,330,2013-02-16 22:51:00
6:51 PM,42.8,8.6,25,30.10,10.0,NNW,16.1,21.9,N/A,,Clear,340,2013-02-16 23:51:00
7:51 PM,41.0,10.0,28,30.13,10.0,NNW,8.1,-,N/A,,Clear,340,2013-02-17 00:51:00
8:51 PM,39.0,12.9,34,30.16,10.0,NNW,3.5,-,N/A,,Clear,340,2013-02-17 01:51:00
9:51 PM,37.9,14.0,38,30.18,10.0,NNW,8.1,-,N/A,,Clear,340,2013-02-17 02:51:00
10:51 PM,37.0,16.0,42,30.20,10.0,NNW,6.9,-,N/A,,Clear,330,2013-02-17 03:51:00
11:51 PM,35.1,17.1,48,30.21,10.0,NW,6.9,-,N/A,,Clear,310,2013-02-17 04:51:00